Flag for U.S.A. Weather past 2 weeks in Spokane, Washington, U.S.A.

Now
64 °F

Partly sunny.


Feels Like: 64 °F
Forecast: 42 / 54 °F
Wind: 3 mph from Northeast

Location: Felts Field

Current Time: Oct 25, 2014 at 5:40:09 PM

Latest Report: Oct 25, 2014 at 4:53 PM


Visibility: 10 mi

Pressure: 29.51 "Hg

Humidity: 49%

Dew point: 44 °F

Location of SpokaneLocation

Historic Weather in Spokane — Graph

°F

Spokane temperature yesterday

Maximum temperature yesterday: 57 °F (at 2:53 PM)
Minimum temperature yesterday: 44 °F (at 3:53 AM)
Average temperature yesterday: 50 °F

Past Weeks' High & Low Weather Summary

 TemperatureHumidityPressure
High74 °F (Oct 10, 3:53 PM)93% (Oct 15, 4:53 AM)30.21 "Hg (Oct 15, 4:53 AM)
Low39 °F (Oct 17, 3:53 AM)18% (Oct 13, 3:53 PM)29.52 "Hg (Oct 25, 3:53 PM)
Average54 °F67%29.90 "Hg
* Reported Oct 10 3:53 PM — Oct 25 3:53 PM, Spokane, Weather by CustomWeather, © 2014

Note: Actual official high and low records may vary slightly from our data, if they occured in-between our weather recording intervals... More about our weather records

Advertising

Spokane weather history for previous 24 hours

 ConditionsComfort  
Time TempWeatherWind HumidityBarometerVisibility
3:53 PM
Oct 25
66 °FPartly sunny.3 mph47%29.52 "Hg10 mi
2:53 PM67 °FScattered clouds.3 mph41%29.52 "Hg10 mi
1:53 PM63 °FPartly sunny.8 mph48%29.55 "Hg10 mi
12:53 PM59 °FOvercast.6 mph56%29.57 "Hg10 mi
11:53 AM59 °FSunny.10 mph54%29.60 "Hg10 mi
10:53 AM54 °FSunny.12 mph64%29.64 "Hg10 mi
9:53 AM50 °FSunny.3 mph74%29.67 "Hg10 mi
8:53 AM47 °FSunny.No wind83%29.69 "Hg10 mi
7:53 AM45 °FClear.No wind86%29.72 "Hg10 mi
6:53 AM45 °FClear.No wind90%29.74 "Hg10 mi
5:53 AM46 °FClear.No wind86%29.77 "Hg10 mi
4:53 AM46 °FClear.No wind89%29.79 "Hg10 mi
3:53 AM46 °FClear.No wind89%29.82 "Hg10 mi
2:53 AM46 °FClear.No wind89%29.84 "Hg10 mi
1:53 AM47 °FClear.No wind86%29.88 "Hg10 mi
12:53 AM48 °FClear.No wind86%29.91 "Hg10 mi
11:53 PM
Oct 24
49 °FPassing clouds.No wind84%29.94 "Hg10 mi
10:53 PM50 °FOvercast.No wind83%29.97 "Hg10 mi
9:53 PM50 °FLight rain. Overcast.No wind83%29.99 "Hg10 mi
8:53 PM51 °FMostly cloudy.No wind74%30.00 "Hg10 mi
7:53 PM52 °FMostly cloudy.3 mph72%30.01 "Hg10 mi
6:53 PM53 °FOvercast.6 mph69%30.02 "Hg10 mi
5:53 PM53 °FPartly sunny.3 mph69%30.02 "Hg10 mi
Weather by CustomWeather, © 2014

See weather overviewHow to use our weather pages